Location: Unspecified
(0.0000°N, 0.0000°E)
Time: 21:28:28
(UTC+00:00)

Vanguard 1 Rocket - Pass Details

Date: 19 January 2020
Orbit: 650 x 4226 km, 34.3° (Epoch: 23 February)

Event Time Altitude Azimuth Distance (km) Brightness Sun altitude
Rises 22:16:35 0° 274° (W) 8,125 12.6 -55.5°
Reaches altitude 10° 22:24:57 10° 261° (W) 6,586 12.0 -57.1°
Maximum altitude 22:38:17 22° 218° (SW) 4,439 11.0 -59.6°
Drops below altitude 10° 22:47:16 10° 172° (S) 4,275 11.0 -61.2°
Sets 22:51:09 0° 156° (SSE) 4,759 11.2 -61.9°
